CZ-4C DEB, 43425

Orbit data source: Space-Track

CZ-4C DEB, 43425 is space debris in SSO originally from a launch on Thu, 27 Aug 2015 UTC launched from the Taiyaun Space Center, China (TSC). Debris objects in space refer to the collection of defunct objects orbiting the Earth. Examples of debris include non-operational satellites, rocket bodies, and fragments generated from explosions, collisions, or faulty payload assembly.

Loading next visibility...
Identifier
43425, 2015-040D
Orbit
SSO
Country
Flag of CNCN / PRC
Related business
Manufacturer
SAST
Mission
Spacecraft
Bus & Motor
Unknown
Mass
Unknown
Launch date (UTC)
2015-08-27 (11 years ago)
Launch vehicle
Unknown
Launch site
Taiyaun Space Center, China (TSC)
Object type
Payload
Rocket body
Debris
Shape & HBR
Unknown shape, 0.1 m
Radar Cross Section
Small (<0.1 m²)

Expand to show TLE details & history
Last TLE update: 6 days ago

TLE from 6 days ago
0 CZ-4C DEB
1 43425U 15040D   26167.41967487  .00000132  00000-0  39642-3 0  9999
2 43425 100.1795 239.6255 0142726 167.1084 193.3742 13.22605936520445
Epoch: 2026-06-16T10:04Z
TLE epoch observation values (Epoch: 2026-06-16T10:04:19.908Z)
Latitude
-0.00009°
Longitude
-176.14941°
Altitude
1,282.49 km
Speed
7.165 km/s
True Right ascension
15h 58m 30s
True Declination
0° 00' 00"
Sunlit
Object was in full shadow at epoch
Visualization orbit readout
Latitude
Unknown
Longitude
Unknown
Altitude
Unknown
Speed
Unknown
Apparent Right ascension
Unknown
Apparent Declination
Unknown
Sunlit
N/A
Visualization observer readout
Local Sidereal Time
21:52:18
Azimuth
Unknown
Elevation
Unknown
Doppler factor
Unknown
Orbital elements
Apogee altitude
1,279.907 km
Perigee altitude
1,064.383 km
Semi-major axis
7,550.282 km
Eccentricity
0.01427
Inclination
100.1795°
RAAN
239.6255°
Arg. of periapsis
167.1084°
True anomaly
193.00235°
Mean anomaly
193.3742°
Eccentric anomaly
193.18764°
Mean motion
3.30825 °/min
Orbital period
108.82 mins
BSTAR
0.00039642
Loading maneuver chart data...
Computing Atmospheric mass density...
Loading historical data...
Loading historical data...
Loading historical data...
Loading historical data...
Loading historical data...
Loading historical data...
Loading historical data...
Other satellites on launch #40 in the year 2015 (2015-08-27 UTC)

Documentation

Showing up to 5 results
|